W4RJF Weather Reports


Display with metric or nautical units.
time (UTC)temp
F
wind
direction
speed
MPH
gust
MPH
rain 1hr
in
rain 24hr
in
rain mn
in
humidity
%
barometer
mb
20260505053023 60 184 1.0 2.0 0.00 0.00 0.00 69 1016.1
20260505052508 60 192 0.0 2.0 0.00 0.00 0.00 68 1016.2
20260505052008 60 202 0.0 2.0 0.00 0.00 0.00 68 1016.2
20260505051524 60 202 0.0 2.0 0.00 0.00 0.00 68 1016.2
20260505051010 61 194 0.0 2.0 0.00 0.00 0.00 67 1016.3
20260505050507 61 198 0.0 2.0 0.00 0.00 0.00 67 1016.3
20260505041522 62 190 0.0 2.0 0.00 0.00 0.00 65 1016.2
20260505041009 62 192 0.0 3.0 0.00 0.00 0.00 65 1016.2
20260505040512 62 192 0.0 3.0 0.00 0.00 0.00 64 1016.3
20260505040027 63 219 0.0 3.0 0.00 0.00 0.00 64 1016.3
20260505035509 63 188 1.0 4.0 0.00 0.00 0.00 63 1016.3
20260505035002 63 186 2.0 4.0 0.00 0.00 0.00 63 1016.2
20260505034516 63 188 1.0 3.0 0.00 0.00 0.00 63 1016.2
20260505034008 63 192 1.0 3.0 0.00 0.00 0.00 62 1016.1
20260505033505 64 192 1.0 4.0 0.00 0.00 0.00 62 1016.1
20260505033019 64 219 1.0 5.0 0.00 0.00 0.00 62 1016.1
20260505032510 64 198 1.0 5.0 0.00 0.00 0.00 61 1016.1
20260505032011 64 199 2.0 5.0 0.00 0.00 0.00 61 1016.0
20260505031523 64 190 1.0 7.0 0.00 0.00 0.00 61 1016.1
20260505031007 65 194 1.0 7.0 0.00 0.00 0.00 60 1016.1
20260505030509 65 201 3.0 7.0 0.00 0.00 0.00 60 1016.1
20260505030024 65 203 1.0 4.0 0.00 0.00 0.00 60 1016.1
20260505025515 65 188 2.0 5.0 0.00 0.00 0.00 60 1016.1
20260505025012 65 186 1.0 5.0 0.00 0.00 0.00 60 1016.0
20260505024527 65 182 1.0 5.0 0.00 0.00 0.00 60 1016.0
20260505024007 65 171 1.0 5.0 0.00 0.00 0.00 60 1016.0
20260505023505 65 200 0.0 5.0 0.00 0.00 0.00 60 1016.0
20260505023021 66 207 1.0 5.0 0.00 0.00 0.00 60 1015.9
20260505022506 66 205 2.0 5.0 0.00 0.00 0.00 59 1015.9
20260505022005 66 214 1.0 6.0 0.00 0.00 0.00 59 1015.9
20260505021521 66 196 1.0 6.0 0.00 0.00 0.00 59 1015.9
20260505021008 67 219 1.0 6.0 0.00 0.00 0.00 59 1015.8
20260505020506 67 178 1.0 4.0 0.00 0.00 0.00 59 1015.8
20260505020030 67 191 1.0 4.0 0.00 0.00 0.00 58 1015.8
20260505015509 67 180 1.0 5.0 0.00 0.00 0.00 58 1015.7
20260505015003 67 227 1.0 6.0 0.00 0.00 0.00 58 1015.7
20260505014522 67 198 1.0 6.0 0.00 0.00 0.00 58 1015.6
20260505014007 68 235 1.0 5.0 0.00 0.00 0.00 57 1015.6
20260505013502 68 199 2.0 5.0 0.00 0.00 0.00 56 1015.6
20260505013015 68 182 2.0 5.0 0.00 0.00 0.00 55 1015.3
20260505012503 68 208 1.0 3.0 0.00 0.00 0.00 52 1015.2
20260505012006 68 194 1.0 3.0 0.00 0.00 0.00 50 1015.1
20260505011530 68 180 1.0 7.0 0.00 0.00 0.00 48 1015.1
20260505011007 69 198 0.0 7.0 0.00 0.00 0.00 48 1015.0
20260505010506 68 205 1.0 2.0 0.00 0.00 0.00 47 1015.0
20260505010022 68 191 0.0 2.0 0.00 0.00 0.00 47 1014.9
20260505005508 69 201 0.0 2.0 0.00 0.00 0.00 47 1014.7
20260505005008 69 193 0.0 2.0 0.00 0.00 0.00 46 1014.6
20260505004538 69 203 0.0 2.0 0.00 0.00 0.00 45 1014.5
20260505004003 69 192 1.0 2.0 0.00 0.00 0.00 45 1014.5
20260505003505 69 203 0.0 2.0 0.00 0.00 0.00 45 1014.4
20260505003018 69 195 0.0 2.0 0.00 0.00 0.00 44 1014.3
20260505002505 69 196 0.0 2.0 0.00 0.00 0.00 44 1014.3
20260505002005 70 193 0.0 2.0 0.00 0.00 0.00 46 1014.4
20260505001520 70 193 0.0 2.0 0.00 0.00 0.00 43 1014.4
20260505001008 71 202 0.0 0.0 0.00 0.00 0.00 42 1014.5
20260505000506 71 202 0.0 1.0 0.00 0.00 0.00 42 1014.4
20260505000029 71 202 0.0 1.0 0.00 0.00 0.00 42 1014.4
20260504235506 72 202 0.0 2.0 0.00 0.00 0.00 41 1014.4
20260504235008 72 198 0.0 2.0 0.00 0.00 0.00 41 1014.3
20260504234523 73 198 0.0 2.0 0.00 0.00 0.00 40 1014.3
20260504234007 73 191 0.0 3.0 0.00 0.00 0.00 39 1014.1
20260504233510 73 196 0.0 3.0 0.00 0.00 0.00 39 1014.1
20260504233008 73 188 1.0 2.0 0.00 0.00 0.00 39 1014.1
20260504232507 74 197 1.0 3.0 0.00 0.00 0.00 39 1014.1
20260504232005 74 202 0.0 4.0 0.00 0.00 0.00 39 1014.0
20260504231517 74 190 1.0 4.0 0.00 0.00 0.00 38 1014.0
20260504231005 74 194 1.0 2.0 0.00 0.00 0.00 38 1014.0
20260504230509 75 197 0.0 4.0 0.00 0.00 0.00 38 1014.0
20260504230020 75 198 0.0 4.0 0.00 0.00 0.00 37 1013.9
20260504225507 75 260 0.0 4.0 0.00 0.00 0.00 38 1013.9
20260504225008 75 198 0.0 4.0 0.00 0.00 0.00 37 1013.9
20260504224521 75 198 2.0 4.0 0.00 0.00 0.00 36 1013.9
20260504224007 76 188 1.0 4.0 0.00 0.00 0.00 36 1013.9
20260504223029 76 206 1.0 3.0 0.00 0.00 0.00 35 1013.9
20260504222512 76 200 1.0 3.0 0.00 0.00 0.00 35 1013.8
20260504222009 76 201 0.0 4.0 0.00 0.00 0.00 36 1013.9
20260504221515 77 186 1.0 4.0 0.00 0.00 0.00 35 1013.8
20260504221005 77 223 0.0 4.0 0.00 0.00 0.00 35 1013.8
20260504220504 77 201 0.0 4.0 0.00 0.00 0.00 36 1013.8
20260504220016 77 197 1.0 4.0 0.00 0.00 0.00 35 1013.8
20260504215507 77 214 1.0 4.0 0.00 0.00 0.00 34 1013.9
20260504215009 78 198 0.0 3.0 0.00 0.00 0.00 34 1013.9
20260504214523 77 233 0.0 4.0 0.00 0.00 0.00 34 1013.8
20260504214014 77 182 0.0 4.0 0.00 0.00 0.00 33 1013.8
20260504213507 77 195 1.0 3.0 0.00 0.00 0.00 32 1013.8
20260504213027 78 207 1.0 3.0 0.00 0.00 0.00 33 1013.9
20260504212509 78 215 0.0 5.0 0.00 0.00 0.00 30 1013.9
20260504212009 78 183 0.0 5.0 0.00 0.00 0.00 31 1013.9
20260504211534 79 223 2.0 5.0 0.00 0.00 0.00 29 1013.9
20260504211007 80 178 1.0 6.0 0.00 0.00 0.00 29 1013.9
20260504210504 80 196 2.0 6.0 0.00 0.00 0.00 29 1013.9
20260504210017 80 184 2.0 5.0 0.00 0.00 0.00 29 1013.9
20260504205508 80 186 0.0 4.0 0.00 0.00 0.00 30 1013.9
20260504205007 79 196 1.0 3.0 0.00 0.00 0.00 31 1013.9
20260504204520 80 281 1.0 4.0 0.00 0.00 0.00 30 1014.0
20260504204007 80 352 0.0 4.0 0.00 0.00 0.00 29 1013.9
20260504203511 80 201 1.0 5.0 0.00 0.00 0.00 29 1014.0
20260504203021 81 159 1.0 4.0 0.00 0.00 0.00 29 1014.0
20260504202506 80 182 1.0 5.0 0.00 0.00 0.00 28 1014.1
20260504202011 80 227 1.0 6.0 0.00 0.00 0.00 27 1014.1
20260504201529 80 218 1.0 6.0 0.00 0.00 0.00 28 1014.2
20260504201006 79 238 1.0 3.0 0.00 0.00 0.00 31 1014.3
20260504200507 80 198 1.0 6.0 0.00 0.00 0.00 29 1014.3
20260504200026 80 173 3.0 6.0 0.00 0.00 0.00 29 1014.3
20260504195509 80 173 2.0 6.0 0.00 0.00 0.00 28 1014.4
20260504195004 79 174 2.0 6.0 0.00 0.00 0.00 28 1014.4
20260504194520 80 184 0.0 4.0 0.00 0.00 0.00 30 1014.4
20260504194007 80 289 0.0 5.0 0.00 0.00 0.00 29 1014.3
20260504193022 79 182 2.0 5.0 0.00 0.00 0.00 30 1014.5
20260504192508 80 171 0.0 3.0 0.00 0.00 0.00 31 1014.6
20260504192010 79 223 0.0 3.0 0.00 0.00 0.00 30 1014.7
20260504191526 80 227 1.0 4.0 0.00 0.00 0.00 30 1014.8
20260504191003 80 240 1.0 4.0 0.00 0.00 0.00 29 1014.9
20260504190504 81 217 1.0 3.0 0.00 0.00 0.00 29 1014.9
20260504190012 80 188 1.0 3.0 0.00 0.00 0.00 32 1015.1
20260504185503 79 280 1.0 4.0 0.00 0.00 0.00 32 1015.1
20260504185003 78 202 0.0 4.0 0.00 0.00 0.00 30 1015.0
20260504184521 78 317 0.0 4.0 0.00 0.00 0.00 1015.0
20260504184008 78 242 1.0 4.0 0.00 0.00 0.00 32 1015.0
20260504183508 78 344 0.0 4.0 0.00 0.00 0.00 32 1015.1
20260504183024 78 277 2.0 4.0 0.00 0.00 0.00 32 1015.2
20260504182506 79 236 1.0 4.0 0.00 0.00 0.00 34 1015.3
20260504182010 78 173 0.0 3.0 0.00 0.00 0.00 35 1015.2
20260504181524 77 264 1.0 3.0 0.00 0.00 0.00 35 1015.3
20260504181010 78 192 0.0 3.0 0.00 0.00 0.00 34 1015.3
20260504180511 77 260 0.0 4.0 0.00 0.00 0.00 37 1015.3
20260504180010 77 227 1.0 4.0 0.00 0.00 0.00 36 1015.3
20260504175503 76 209 0.0 2.0 0.00 0.00 0.00 37 1015.4
20260504175009 76 213 0.0 2.0 0.00 0.00 0.00 37 1015.5
20260504174515 75 18 0.0 3.0 0.00 0.00 0.00 39 1015.7
20260504173507 74 227 0.0 2.0 0.00 0.00 0.00 38 1015.9
20260504173017 74 300 0.0 4.0 0.00 0.00 0.00 39 1016.1
20260504172508 74 240 0.0 4.0 0.00 0.00 0.00 43 1016.1
20260504172008 74 233 1.0 3.0 0.00 0.00 0.00 40 1016.1
20260504171524 73 190 1.0 5.0 0.00 0.00 0.00 40 1016.1
20260504171011 73 303 2.0 5.0 0.00 0.00 0.00 43 1016.1
20260504170506 73 360 1.0 4.0 0.00 0.00 0.00 43 1016.2
20260504151007 66 231 1.0 2.0 0.00 0.00 0.00 56 1017.3
20260504150510 66 207 0.0 2.0 0.00 0.00 0.00 59 1017.2
20260504141008 62 192 0.0 4.0 0.00 0.00 0.00 69 1017.4
20260504140507 61 188 0.0 4.0 0.00 0.00 0.00 70 1017.4
20260504130508 56 250 0.0 0.0 0.00 0.00 0.00 81 1017.7
20260504110508 45 22 0.0 0.0 0.00 0.00 0.00 92 1017.8
20260504100503 44 22 0.0 0.0 0.00 0.00 0.00 91 1017.6
20260504082002 45 22 0.0 0.0 0.00 0.00 0.00 88 1017.6
20260504081508 46 22 0.0 0.0 0.00 0.00 0.00 87 1017.6
20260504081004 46 22 0.0 0.0 0.00 0.00 0.00 87 1017.6
20260504080504 46 22 0.0 0.0 0.00 0.00 0.00 87 1017.7